Wind_Speed
16 15 13 13 15 14 11 8 7 6 5 4 4 6 7 6 7 7 9 9 9 9 8 6 6 5 6 5 5 5 4 6 5 5 5 6 3 2 2 3 4 4 3
16 15 12 11 18 15 10 9 9 9 8 6 5 6 6 6 6 7 9 10 9 10 7 7 7 7 6 6 7 6 7 5 7 4 5 4 4 3 3 3 3 0 1
13 18 11 11 14 13 9 7 9 11 10 7 7 7 7 6 6 8 10 9 10 8 8 7 8 5 5 8 8 9 7 4 5 2 2 5 2 2 1 1 1 1 1
15 18 13 11 12 11 9 8 9 11 11 8 8 7 9 9 9 10 11 10 9 8 7 8 6 6 8 10 10 8 7 6 6 1 3 3 1 1 1 0 0 1 2
15 16 15 13 13 11 10 10 8 10 12 8 8 14 9 12 10 11 11 9 9 10 9 9 7 7 8 10 8 8 5 10 14 7 5 1 2 2 2 1 2 2 3
13 17 15 14 13 12 11 11 8 11 12 12 13 10 14 16 12 11 11 10 11 10 9 7 6 6 8 9 9 12 18 9 16 4 5 3 1 3 3 3 5 4 4
11 12 16 16 14 12 13 12 12 11 13 14 11 13 20 15 14 12 12 11 11 8 7 6 6 7 8 10 13 19 17 14 17 3 10 6 0 3 2 2 4 7 7
7 12 15 17 17 15 14 8 11 11 13 10 11 18 17 15 15 13 11 11 9 6 8 7 10 13 16 18 19 20 17 9 12 10 11 8 4 2 2 1 5 9 8
7 13 16 17 17 16 13 9 8 14 16 10 13 18 15 16 15 12 11 10 7 10 9 10 14 18 20 20 18 14 10 8 10 4 8 7 2 3 3 3 5 7 6
7 13 14 17 17 16 13 16 9 12 13 13 9 16 15 15 12 11 10 8 9 8 9 13 17 17 25 21 20 17 12 4 5 7 2 6 5 4 8 5 6 6 4
6 12 13 13 18 15 12 6 13 12 11 13 15 15 14 13 11 10 9 8 8 7 11 16 17 11 18 16 11 5 4 2 6 5 4 6 8 10 8 4 5 6 5
8 11 13 14 14 14 9 7 13 16 13 14 15 14 13 11 9 8 8 7 7 8 11 16 16 16 18 18 15 11 11 6 5 5 8 7 8 8 5 3 4 5 5
7 13 15 16 15 11 6 7 7 14 15 13 13 12 10 10 8 6 8 6 6 9 11 13 14 16 19 17 22 14 8 7 7 9 10 8 7 6 5 4 2 3 5
6 10 16 15 14 10 8 8 4 7 11 10 11 10 8 8 6 5 6 4 7 7 9 12 13 12 18 19 17 17 9 7 9 11 12 11 8 7 6 5 3 3 5
5 8 12 13 13 11 11 13 10 10 9 10 11 9 8 7 6 5 5 3 5 5 8 10 10 11 15 16 15 9 9 7 7 6 9 10 10 9 9 6 5 3 2
5 7 9 11 12 10 11 14 14 12 10 13 12 9 9 7 5 5 4 2 4 5 6 9 9 8 12 14 16 16 14 2 1 4 8 9 10 10 9 7 6 5 4
7 7 11 11 11 12 15 12 14 13 11 13 12 10 9 7 6 5 3 2 3 3 4 8 8 8 9 14 17 17 16 5 2 4 7 8 9 10 10 10 9 8 7
10 12 12 12 12 12 16 14 17 15 11 13 12 11 9 9 8 6 3 3 1 2 3 5 7 7 9 13 16 19 12 8 10 9 10 9 9 8 10 12 13 13 10
7 13 13 10 11 13 13 16 16 15 13 16 13 11 11 11 10 7 4 3 2 3 3 4 6 5 7 11 14 19 19 17 14 15 12 10 10 10 7 12 12 12 10
7 15 11 10 13 15 14 14 15 14 12 15 13 10 12 12 11 9 6 5 3 4 5 2 4 6 8 9 12 12 14 15 13 10 11 10 9 10 11 12 13 12 11
6 18 12 13 12 12 13 14 16 15 17 13 11 12 10 10 9 10 10 6 6 4 3 2 3 4 6 7 8 10 11 12 14 12 9 7 7 9 10 12 12 14 14
5 12 14 16 13 10 12 14 15 15 14 13 13 14 11 9 7 8 7 6 7 8 6 3 3 4 5 6 6 11 13 16 18 11 9 5 7 8 10 11 14 15 15
4 10 15 17 15 12 15 16 16 13 13 13 14 13 10 11 7 6 4 4 7 10 8 5 3 3 3 5 6 7 6 8 9 14 10 6 6 8 9 11 13 14 14
5 7 10 16 15 17 15 16 15 14 14 13 13 14 13 11 11 7 6 4 4 11 9 7 4 3 2 5 7 5 8 12 14 11 11 8 9 7 9 10 12 12 12
6 7 11 11 10 13 18 17 15 15 14 15 14 12 12 11 9 8 7 9 6 6 6 6 3 1 2 5 7 4 4 5 9 7 9 8 7 8 8 9 9 9 10
10 10 11 13 13 11 15 17 15 15 14 15 15 15 11 9 7 8 8 9 7 6 6 5 4 4 3 3 4 4 3 2 7 5 7 8 7 7 6 7 9 8 9
Wind_Direction
189 188 189 198 197 195 201 202 207 212 190 158 103 97 90 86 68 60 63 59 56 45 34 28 29 31 20 4 356 9 352 11 13 0 10 10 339 299 285 251 255 298 75
193 196 188 199 201 200 196 204 210 219 213 188 133 104 111 92 79 67 69 65 53 49 39 42 38 30 19 6 13 4 7 9 5 355 34 301 313 303 274 275 300 245 198
199 194 193 190 187 195 190 204 216 221 214 196 171 140 133 119 90 84 78 66 55 55 54 47 44 27 30 29 22 14 2 0 327 332 288 275 306 301 279 310 352 335 244
203 201 209 201 198 193 201 224 231 226 213 203 184 171 157 130 107 95 79 62 59 63 63 56 44 32 39 30 16 11 336 308 276 309 231 271 273 352 3 274 62 273 246
210 211 214 208 212 214 216 223 243 226 221 220 214 177 158 120 107 92 80 73 72 71 65 63 52 43 40 31 14 345 318 289 303 197 189 286 63 5 316 305 295 213 216
203 218 219 212 217 219 223 229 254 234 217 220 243 180 131 116 115 102 93 88 86 82 71 71 60 32 22 2 346 328 342 283 291 225 131 110 345 326 279 296 309 247 195
198 212 216 212 214 218 217 234 249 255 218 226 187 138 115 119 109 98 92 95 95 88 74 55 34 14 350 340 329 328 343 340 332 62 147 129 7 297 250 320 6 152 165
204 200 199 203 210 214 222 238 261 232 207 206 146 116 122 115 104 100 106 107 101 90 55 37 21 9 356 346 340 343 15 358 22 148 145 141 173 196 185 156 133 158 175
185 196 198 199 212 215 220 206 220 191 207 170 159 121 118 108 105 110 114 114 109 65 46 32 21 10 5 1 342 334 25 81 66 84 121 140 124 131 154 196 182 188 193
185 191 198 206 213 215 219 232 222 199 142 166 117 122 116 111 118 120 124 124 84 64 44 31 22 36 30 34 13 355 28 58 105 105 48 108 121 28 173 192 200 214 201
173 186 198 212 222 215 218 232 192 161 162 141 128 127 119 121 129 131 127 106 87 56 40 32 26 31 12 12 358 13 352 12 90 61 121 112 101 81 134 177 209 218 217
193 188 196 202 202 214 218 214 180 158 128 129 129 128 125 137 134 137 120 109 80 49 44 33 41 38 16 21 63 89 51 74 72 85 104 103 93 88 98 137 195 205 227
197 190 193 203 210 214 205 206 152 117 134 135 132 133 136 140 140 144 122 105 74 44 39 37 39 26 38 54 51 77 84 80 85 85 82 80 65 58 54 43 326 262 244
185 202 190 201 212 207 190 183 176 157 144 144 144 141 138 138 146 145 116 100 63 51 37 42 25 33 40 44 43 56 58 84 73 76 82 73 63 53 44 29 353 288 248
146 197 199 199 213 216 200 184 184 169 181 183 160 144 147 154 156 158 124 108 72 48 33 41 39 35 40 42 37 34 23 63 60 65 67 56 43 38 34 16 0 357 303
170 180 203 210 208 219 207 184 185 179 160 163 159 158 163 166 161 168 143 95 55 45 22 24 33 40 39 43 30 15 3 111 88 67 47 40 34 27 26 13 0 353 337
209 213 199 209 223 228 215 213 194 178 151 161 164 167 167 172 168 180 165 94 57 23 11 14 22 47 45 32 30 27 34 83 257 66 58 45 29 24 20 16 7 6 348
225 216 206 214 237 204 199 200 182 176 178 178 172 175 175 185 178 180 184 154 102 332 340 9 19 44 42 23 29 23 24 44 113 91 61 43 39 21 18 20 14 12 2
206 194 177 208 186 179 183 183 183 186 200 177 177 178 185 191 192 188 172 151 185 279 313 0 8 15 27 23 28 36 31 63 63 63 52 44 37 31 22 26 24 20 11
170 178 176 171 182 189 186 193 195 202 187 181 178 185 190 196 206 209 207 210 213 264 294 347 9 0 25 21 32 45 45 52 45 47 49 46 43 35 35 33 31 24 18
187 182 183 161 171 190 184 190 204 201 184 184 177 186 182 189 204 225 236 234 228 221 281 277 331 354 24 13 19 40 22 43 55 19 40 43 58 51 37 36 36 34 27
189 194 194 177 170 178 183 167 166 175 180 182 187 187 202 200 221 223 209 225 226 231 235 253 322 322 8 4 4 34 346 35 49 49 28 54 71 56 43 39 41 37 34
186 199 199 189 177 177 184 177 176 172 176 188 197 201 198 203 208 202 211 244 231 215 205 241 278 300 337 356 353 31 12 37 60 44 35 64 58 52 49 46 47 44 42
211 196 198 205 202 190 184 186 189 191 194 203 202 211 203 211 226 229 220 247 186 196 234 236 252 305 1 343 348 14 10 4 37 46 60 64 54 47 43 47 51 49 46
239 221 203 201 207 198 193 193 195 201 204 202 202 205 214 219 226 235 241 237 211 218 215 229 248 237 301 337 342 351 8 22 24 31 56 58 40 38 44 49 53 54 55
236 229 220 212 210 205 197 198 197 203 208 205 206 216 218 226 238 247 245 239 223 234 221 222 221 223 266 316 330 352 10 35 76 30 39 63 55 38 33 34 37 50 55
Height
5884 5887 5888 5889 5891 5892 5894 5896 5897 5898 5898 5898 5900 5901 5902 5903 5902 5903 5903 5903 5903 5901 5901 5900 5900 5900 5900 5899 5898 5896 5896 5895 5894 5894 5893 5891 5890 5889 5888 5886 5887 5884 5884
5884 5886 5888 5889 5890 5892 5894 5897 5897 5898 5898 5899 5900 5902 5903 5903 5904 5904 5904 5904 5903 5902 5901 5901 5901 5900 5901 5901 5900 5898 5896 5895 5894 5893 5893 5892 5890 5889 5889 5888 5887 5886 5886
5884 5886 5888 5889 5891 5892 5894 5896 5896 5897 5898 5899 5901 5903 5904 5904 5905 5905 5904 5905 5904 5904 5903 5903 5902 5901 5901 5901 5900 5898 5897 5896 5895 5894 5892 5892 5891 5890 5890 5888 5887 5887 5888
5885 5887 5889 5890 5892 5893 5894 5895 5895 5895 5897 5899 5901 5904 5904 5904 5905 5905 5905 5906 5906 5905 5905 5904 5903 5904 5903 5900 5900 5898 5898 5896 5893 5894 5892 5892 5891 5891 5890 5889 5888 5888 5888
5886 5887 5889 5891 5892 5893 5895 5894 5894 5894 5898 5899 5901 5902 5901 5905 5905 5905 5906 5907 5906 5906 5906 5905 5904 5904 5902 5900 5899 5898 5896 5894 5892 5890 5892 5892 5891 5891 5890 5890 5889 5889 5889
5886 5886 5889 5891 5891 5893 5894 5894 5895 5896 5898 5899 5898 5900 5902 5904 5905 5906 5907 5906 5906 5905 5905 5905 5904 5903 5901 5898 5897 5895 5894 5891 5889 5889 5890 5891 5891 5891 5890 5890 5888 5889 5890
5884 5887 5889 5890 5891 5893 5894 5895 5895 5896 5898 5898 5896 5900 5901 5903 5905 5906 5905 5906 5905 5905 5905 5905 5904 5902 5900 5898 5896 5893 5892 5890 5888 5888 5888 5888 5890 5891 5889 5890 5888 5888 5891
5884 5886 5887 5890 5891 5892 5894 5895 5896 5896 5897 5898 5899 5898 5902 5904 5905 5905 5906 5906 5905 5906 5906 5905 5904 5902 5900 5897 5894 5891 5890 5888 5888 5886 5886 5887 5889 5890 5889 5889 5889 5889 5890
5885 5885 5887 5889 5891 5892 5894 5896 5896 5896 5897 5898 5898 5899 5903 5903 5904 5905 5907 5906 5906 5907 5906 5906 5903 5902 5898 5895 5892 5889 5888 5888 5887 5887 5886 5887 5888 5890 5889 5889 5890 5890 5891
5884 5885 5887 5889 5890 5892 5893 5894 5896 5897 5897 5898 5899 5901 5903 5904 5904 5906 5907 5907 5907 5907 5907 5907 5904 5902 5898 5894 5891 5887 5888 5888 5887 5886 5888 5886 5888 5888 5887 5890 5891 5891 5891
5884 5885 5887 5889 5890 5893 5894 5896 5893 5896 5899 5899 5901 5902 5904 5905 5906 5907 5907 5908 5908 5909 5909 5907 5904 5902 5898 5895 5890 5885 5889 5888 5887 5888 5888 5888 5888 5888 5889 5890 5890 5891 5891
5884 5885 5886 5888 5890 5892 5896 5896 5896 5897 5900 5901 5904 5904 5905 5907 5907 5907 5909 5909 5909 5910 5910 5909 5906 5903 5901 5895 5892 5891 5892 5891 5890 5890 5889 5889 5889 5889 5890 5890 5891 5890 5891
5883 5884 5886 5888 5890 5893 5896 5896 5897 5897 5901 5904 5905 5906 5907 5908 5908 5909 5910 5911 5912 5913 5911 5910 5907 5907 5903 5899 5895 5894 5894 5893 5892 5892 5890 5891 5891 5890 5890 5891 5891 5890 5890
5883 5884 5886 5888 5891 5893 5896 5898 5900 5901 5903 5906 5907 5908 5908 5910 5910 5911 5912 5912 5913 5914 5913 5912 5910 5907 5904 5902 5901 5899 5898 5896 5895 5893 5893 5893 5893 5892 5891 5891 5892 5891 5890
5883 5884 5886 5888 5891 5895 5897 5899 5902 5903 5905 5907 5908 5908 5910 5911 5912 5913 5913 5914 5915 5915 5914 5912 5911 5910 5907 5906 5904 5902 5900 5897 5897 5896 5895 5895 5894 5893 5892 5893 5892 5891 5890
5884 5884 5885 5887 5891 5894 5897 5900 5903 5905 5906 5906 5908 5909 5911 5911 5913 5914 5914 5914 5914 5915 5915 5914 5912 5911 5909 5907 5906 5903 5900 5899 5899 5898 5897 5896 5895 5895 5894 5893 5893 5892 5890
5883 5884 5886 5888 5889 5892 5896 5899 5902 5905 5905 5907 5909 5910 5912 5912 5914 5915 5915 5915 5915 5915 5916 5915 5914 5913 5911 5909 5907 5905 5901 5899 5899 5898 5897 5897 5896 5896 5895 5894 5893 5891 5890
5882 5883 5884 5887 5888 5890 5894 5897 5901 5904 5906 5908 5909 5911 5912 5913 5914 5915 5916 5916 5916 5916 5917 5916 5915 5915 5913 5911 5909 5907 5903 5900 5899 5898 5898 5898 5898 5898 5897 5895 5893 5891 5890
5881 5882 5884 5888 5889 5891 5894 5898 5901 5905 5906 5908 5910 5911 5912 5913 5914 5915 5916 5916 5917 5917 5917 5916 5916 5916 5915 5914 5913 5910 5907 5904 5904 5900 5901 5901 5900 5900 5900 5896 5894 5892 5891
5881 5883 5885 5888 5891 5892 5895 5898 5901 5905 5906 5909 5911 5912 5913 5914 5914 5915 5916 5917 5917 5918 5917 5917 5916 5916 5916 5916 5916 5911 5909 5906 5907 5906 5904 5903 5902 5902 5900 5897 5896 5894 5892
5884 5885 5887 5889 5891 5894 5895 5898 5901 5904 5908 5910 5912 5913 5914 5914 5914 5915 5916 5917 5917 5918 5918 5917 5917 5917 5917 5917 5915 5915 5911 5910 5907 5911 5907 5905 5905 5904 5902 5899 5898 5895 5893
5885 5887 5888 5890 5892 5894 5896 5898 5901 5904 5908 5909 5912 5913 5914 5915 5914 5915 5916 5916 5917 5918 5919 5918 5917 5918 5918 5918 5916 5919 5912 5911 5909 5908 5909 5908 5907 5905 5904 5901 5899 5897 5896
5886 5888 5890 5891 5892 5895 5896 5899 5901 5904 5908 5910 5912 5914 5914 5915 5915 5915 5916 5916 5917 5918 5919 5919 5918 5918 5919 5919 5919 5918 5917 5909 5904 5911 5910 5910 5909 5907 5906 5904 5901 5900 5900
5888 5889 5891 5893 5894 5895 5898 5899 5902 5905 5908 5909 5911 5913 5914 5914 5915 5916 5916 5917 5917 5917 5918 5918 5919 5919 5919 5920 5920 5920 5919 5914 5914 5916 5913 5912 5911 5910 5908 5907 5904 5903 5902
5889 5889 5891 5893 5894 5895 5896 5900 5902 5905 5907 5908 5910 5912 5913 5914 5914 5915 5915 5916 5917 5917 5918 5918 5919 5920 5920 5919 5920 5920 5920 5920 5920 5917 5915 5914 5913 5912 5910 5909 5908 5906 5904
5888 5890 5891 5892 5894 5895 5897 5899 5902 5904 5905 5908 5909 5910 5912 5913 5913 5914 5915 5916 5917 5917 5917 5917 5918 5919 5920 5920 5920 5920 5921 5920 5909 5919 5917 5915 5914 5914 5913 5912 5910 5907 5906